SKYSAT-C6

Last updated on Sat Apr 26 2025 00:02:26 GMT+0000 (Coordinated Universal Time)

1 42992U 17068F 25115.64132017 .00017189 00000+0 59730-3 0 9998 2 42992 97.4032 247.3052 0005944 117.4947 242.6898 15.29792725418417
UTC large
Height (km)
Speed (km/s)
/
Latitude / Longitude
Inclination (degrees)
Orbital Period (minutes)
Azimuth
Elevation
Range (km)
Doppler Factor

Next 0 passes for location: London (51.5072 / 0.1276)

Sorry there are no passes over London.